Weather in Shchigry

Russia / Kurgan Oblast     55°59′13″N   66°37′12″E
temp.,
°C
wind,
m/s
gust,
m/s
humid.,
%
clouds,
%
prec.,
mm/h
press.,
hPa
HPBL,
m
17 may, tue
tue1723:00+12ssw613795 1.8 996402
02:00+10sw6138756 0.0 997492
05:00+9sw715897 0.0 998551
08:00+10wsw71282100 0.1 998742
11:00+13w71171100 0.2 9991167
14:00+13wsw7107070 0.3 1001842
17:00+16w795860 0.8 10021604
20:00+13wsw48735 0.3 1003245
18 may, wed
wed1823:00+10sw34805 0.3 100456
02:00+9ssw33835 0.0 100522
05:00+9s348294 0.0 100554
08:00+14ssw576257 0.0 1006463
11:00+18ssw6746100 0.0 10052099
14:00+18ssw5744100 0.0 10042043
17:00+17sw474983 0.0 10031228
20:00+14s22585 0.0 100213
19 may, thu
thu1923:00+11se336264 0.0 100042
02:00+11s51070100 0.1 998300
05:00+9sw61092100 0.6 997632
08:00+8wsw81386100 0.8 998961
11:00+10w71382100 4.8 9991238
14:00+14w9125999 1.1 10001856
17:00+13w8126831 1.8 10021235
20:00+9w9137812 0.2 1004868
20 may, fri
fri2023:00+6sw410850 0.2 1005234
02:00+8sw41169100 0.0 1005325
05:00+7wsw5108083 0.0 1005402
08:00+9wsw697246 0.1 10061038
11:00+12wsw7104788 0.1 10062283
14:00+13w8124595 0.3 10062604
17:00+12w8115339 0.8 10061855
20:00+9wsw47680 0.3 1006173
21 may, sat
sat2123:00+6sw35756 0.3 100768
02:00+5wsw3476100 0.0 100653
05:00+6sw1275100 0.0 100515
08:00+9ese1162100 0.0 1004312
11:00+12ese2353100 0.0 10021439
14:00+13se546199 0.3 10001398
17:00+8s4692100 2.9 999472
20:00+8wsw3592100 6.3 998291